Weather in Volchkovtsy

Ukraine / Ivano-Frankovsk District     48°28′22″N   25°23′43″E
temp.,
°C
wind,
m/s
gust,
m/s
humid.,
%
clouds,
%
prec.,
mm/h
press.,
hPa
HPBL,
m
23 april, fri
fri2300:00+5wnw5892100 2.0 1019549
03:00+5wnw3590100 2.9 1019375
06:00+5wsw248996 0.1 1019223
09:00+6wnw3479100 0.1 1020578
12:00+9nw445394 0.1 10201811
15:00+10nnw444693 0.1 10201869
18:00+8wnw567193 0.1 1021921
21:00+5wsw368198 0.4 1022126
24 april, sat
sat2400:00+3w368751 0.0 1023161
03:00+2wnw39855 0.0 1023243
06:00+2nw513823 0.0 1023513
09:00+4nw697389 0.0 1025898
12:00+8nw584698 0.0 10242054
15:00+11nw584099 0.0 10222218
18:00+11nw3443100 0.0 10211859
21:00+6nw116569 0.0 102311
25 april, sun
sun2500:00+4sw118021 0.0 102215
03:00+3s11847 0.0 102110
06:00+3nw3586100 0.0 1021114
09:00+4wnw4795100 0.3 1021596
12:00+6nnw467399 0.4 10211097
15:00+8nw4556100 0.5 10201479
18:00+8nnw455392 0.0 10191386
21:00+5wnw2260100 0.0 102012
26 april, mon
mon2600:00+4w4676100 0.1 1021238
03:00+3wsw359097 0.1 1020187
06:000wnw37923 0.0 1020160
09:00+5nw46600 0.0 1020569
12:00+8nw5740100 0.0 10192507
15:00+10nnw564298 0.0 10182020
18:00+8nnw4448100 0.0 10171570
21:00+5wsw457499 0.1 1018121
27 april, tue
tue2700:00+2w2390100 0.0 101876
03:00+3sw3379100 0.0 101889
06:00+1wsw239319 0.0 101753
09:00+5wnw23695 0.0 1017495
12:00+9nw224817 0.0 10171536
15:00+12wnw11416 0.0 10151785
18:00+12e22435 0.0 10141285
21:00+7ese34609 0.0 101457